GLOBALSTAR M001 1 25162U 98008A 25351.21819081 -.00000064 00000+0 25181-3 0 9997 2 25162 52.0008 160.4910 0000285 313.7481 217.0230 12.38223837266385 GLOBALSTAR M004 1 25163U 98008B 25351.08466626 -.00000070 00000+0 18914-3 0 9999 2 25163 51.9984 216.1708 0003193 356.2008 167.9232 12.63411026284808 GLOBALSTAR M002 1 25164U 98008C 25351.12294284 -.00000069 00000+0 14885-3 0 9995 2 25164 51.9986 141.5203 0002599 112.7157 247.3938 11.61514878205323 GLOBALSTAR M003 1 25165U 98008D 25351.34842035 -.00000196 00000+0 -11389-2 0 9990 2 25165 51.9927 21.2192 0007770 302.5230 70.9370 12.12041859255435 GLOBALSTAR M014 1 25306U 98023A 25351.22273657 -.00000087 00000+0 -17571-3 0 9998 2 25306 51.9857 60.6447 0000405 359.6003 33.3537 11.65483610212515 GLOBALSTAR M006 1 25307U 98023B 25350.65289823 -.00000083 00000+0 -15889-3 0 9993 2 25307 51.9926 121.3786 0004093 88.1977 284.7646 11.58178822237973 GLOBALSTAR M015 1 25308U 98023C 25351.13535580 -.00000064 00000+0 22562-3 0 9996 2 25308 51.9802 227.0370 0013561 43.9581 125.9589 11.48862747215108 GLOBALSTAR M008 1 25309U 98023D 25351.31255498 -.00000079 00000+0 13648-3 0 9995 2 25309 51.9989 27.1221 0002788 194.7515 246.6870 12.36076847260492 GLOBALSTAR M023 1 25621U 99004A 25351.34020580 -.00000058 00000+0 25440-3 0 9997 2 25621 52.0086 215.7328 0009939 166.8983 3.4849 12.62510557238867 GLOBALSTAR M040 1 25622U 99004B 25351.14991078 -.00000073 00000+0 17111-3 0 9998 2 25622 51.9898 220.7362 0001961 73.2660 102.1303 12.62025129238353 GLOBALSTAR M036 1 25623U 99004C 25351.32984319 -.00000101 00000+0 -26046-3 0 9999 2 25623 51.9958 117.5870 0010854 45.6124 335.3406 11.86618259200728 GLOBALSTAR M038 1 25624U 99004D 25351.14643693 -.00000076 00000+0 15403-3 0 9992 2 25624 51.9977 264.6662 0002645 68.6525 72.3448 12.32537444224933 GLOBALSTAR M022 1 25649U 99012A 25351.21723826 -.00000047 00000+0 47683-3 0 9996 2 25649 52.0011 153.3378 0003190 152.9852 18.2208 12.02508198198399 GLOBALSTAR M041 1 25650U 99012B 25351.30848018 -.00000083 00000+0 24415-4 0 9998 2 25650 52.0037 40.1240 0000794 330.3150 29.7641 11.96681251200206 GLOBALSTAR M046 1 25651U 99012C 25351.31768439 -.00000197 00000+0 -11900-2 0 9998 2 25651 52.0054 96.5138 0001472 237.6874 154.6225 12.09415962205821 GLOBALSTAR M037 1 25652U 99012D 25351.29222613 -.00000078 00000+0 14431-3 0 9995 2 25652 52.0028 346.4282 0001750 230.8910 141.9736 12.62458430234403 GLOBALSTAR M045 1 25676U 99019A 25350.71809435 -.00000079 00000+0 13177-3 0 9994 2 25676 51.9943 145.0124 0000996 116.3723 257.2127 12.27070599215807 GLOBALSTAR M019 1 25677U 99019B 25351.25116823 .00000029 00000+0 12422-2 0 9992 2 25677 51.9886 286.7441 0001689 354.7777 153.3591 12.13877196207373 GLOBALSTAR M044 1 25678U 99019C 25351.18924667 -.00000041 00000+0 59067-3 0 9990 2 25678 51.9971 261.1700 0006877 34.3335 117.5014 11.90261762193117 GLOBALSTAR M042 1 25679U 99019D 25351.21312611 -.00000062 00000+0 28728-3 0 9998 2 25679 52.0011 254.2640 0002975 335.3841 192.1634 12.22094254207638 GLOBALSTAR M025 1 25770U 99031A 25351.28072742 -.00000079 00000+0 -36527-3 0 9994 2 25770 51.9820 95.1190 0002986 99.0243 272.7839 11.22558923502277 GLOBALSTAR M049 1 25771U 99031B 25351.34750981 -.00000127 00000+0 -21360-2 0 9992 2 25771 51.9845 138.9322 0002220 345.5659 14.5073 11.12123472137800 GLOBALSTAR M047 1 25772U 99031C 25351.29905639 -.00000086 00000+0 -44974-3 0 9990 2 25772 51.9818 118.5166 0016161 213.4458 146.5328 11.31931754491847 GLOBALSTAR M052 1 25773U 99031D 25351.12415758 -.00000058 00000+0 27385-3 0 9996 2 25773 51.9857 245.5433 0003341 98.6035 51.6743 11.15062340498919 GLOBALSTAR M035 1 25851U 99037A 25351.29720904 -.00000075 00000+0 -45032-3 0 9998 2 25851 51.9984 6.6104 0013585 278.4070 166.5338 11.04540200116496 GLOBALSTAR M032 1 25852U 99037B 25351.26623157 -.00000047 00000+0 64293-3 0 9996 2 25852 51.9913 179.2486 0013771 112.7325 247.4931 11.19075181155284 GLOBALSTAR M051 1 25853U 99037C 25351.30610414 -.00000104 00000+0 -79573-3 0 9996 2 25853 51.9823 319.1391 0000213 38.6244 321.4582 11.42202943153319 GLOBALSTAR M030 1 25854U 99037D 25351.27709792 -.00000069 00000+0 11991-3 0 9990 2 25854 51.9871 113.6690 0003385 35.5571 324.5471 11.55110435171201 GLOBALSTAR M048 1 25872U 99041A 25351.15027777 -.00000054 00000+0 43578-3 0 9998 2 25872 51.9371 261.6238 0013316 137.2369 6.7706 11.33860984145734 GLOBALSTAR M026 1 25873U 99041B 25351.14430870 -.00000059 00000+0 17156-3 0 9998 2 25873 51.9998 122.9781 0001842 176.6370 354.2816 11.06849574168743 GLOBALSTAR M043 1 25874U 99041C 25351.35349125 -.00000028 00000+0 11877-2 0 9993 2 25874 51.9432 16.0808 0013428 261.6752 110.3163 11.25697475143507 GLOBALSTAR M028 1 25875U 99041D 25351.33867139 -.00000060 00000+0 26333-3 0 9992 2 25875 51.9643 6.9337 0063546 109.2769 251.4980 12.50592890213098 GLOBALSTAR M024 1 25883U 99043A 25351.35894302 -.00000115 00000+0 -17916-2 0 9995 2 25883 52.0047 327.3220 0001760 32.0097 117.4333 11.10166246135201 GLOBALSTAR M027 1 25884U 99043B 25351.33103264 -.00000022 00000+0 15592-2 0 9998 2 25884 52.0236 50.5547 0020973 286.1911 73.6575 11.04372329161476 GLOBALSTAR M054 1 25885U 99043C 25350.72924294 -.00000059 00000+0 31892-3 0 9997 2 25885 52.0106 148.5597 0005937 124.7014 343.8308 11.39224898139858 GLOBALSTAR M053 1 25886U 99043D 25351.28269390 -.00000091 00000+0 -66125-3 0 9993 2 25886 51.9976 104.4868 0003615 51.4723 320.7985 11.27668922140100 GLOBALSTAR M058 1 25907U 99049A 25351.26314045 -.00000098 00000+0 -18359-3 0 9992 2 25907 51.9969 340.3106 0001720 269.2181 90.8456 11.93206507563392 GLOBALSTAR M050 1 25908U 99049B 25351.34530263 -.00000105 00000+0 -19300-3 0 9990 2 25908 52.0012 334.0829 0009372 36.7943 111.2056 12.07461776170317 GLOBALSTAR M033 1 25909U 99049C 25351.25346567 -.00000075 00000+0 15929-3 0 9991 2 25909 51.9878 193.5237 0013106 283.0634 76.8750 12.20294738558090 GLOBALSTAR M055 1 25910U 99049D 25351.26356171 -.00000048 00000+0 39556-3 0 9998 2 25910 51.9987 195.3272 0007525 142.9587 217.1786 12.29438160190808 GLOBALSTAR M057 1 25943U 99058A 25351.23806047 -.00000055 00000+0 34276-3 0 9995 2 25943 51.9952 188.7031 0003295 46.1137 313.9984 12.24832058189364 GLOBALSTAR M059 1 25944U 99058B 25351.16539784 -.00000101 00000+0 -18623-3 0 9990 2 25944 52.0032 72.1521 0000434 120.8104 250.5322 11.99988194596012 GLOBALSTAR M056 1 25945U 99058C 25351.36365251 -.00000105 00000+0 -20480-3 0 9997 2 25945 51.9975 68.8801 0001348 168.0613 267.9633 12.04780998184709 GLOBALSTAR M031 1 25946U 99058D 25351.31764485 -.00000014 00000+0 77284-3 0 9997 2 25946 51.9981 310.3664 0000953 181.2700 328.7985 12.16044744186820 GLOBALSTAR M039 1 25961U 99062A 25351.30794059 -.00000068 00000+0 19968-3 0 9992 2 25961 51.9857 70.9587 0002675 49.1212 310.9886 12.62339806203342 GLOBALSTAR M034 1 25962U 99062B 25351.10681677 -.00000041 00000+0 62976-3 0 9990 2 25962 51.9869 255.9011 0015095 29.0679 109.9184 11.79454092159975 GLOBALSTAR M029 1 25963U 99062C 25351.30060765 -.00000065 00000+0 26327-3 0 9998 2 25963 51.9831 319.6666 0002530 108.3310 33.1901 11.99904251191107 GLOBALSTAR M061 1 25964U 99062D 25351.33423949 -.00000103 00000+0 -36819-3 0 9990 2 25964 51.9801 81.7729 0005133 309.2458 93.2222 11.76777871142749 GLOBALSTAR M063 1 26081U 00008A 25351.25873339 -.00000133 00000+0 -74127-3 0 9993 2 26081 51.9983 349.4235 0004604 307.2905 65.3138 11.86178268179308 GLOBALSTAR M062 1 26082U 00008B 25351.16863356 -.00000117 00000+0 -13393-3 0 9992 2 26082 51.9860 277.6836 0007167 136.2685 2.7393 12.43478759519380 GLOBALSTAR M060 1 26083U 00008C 25351.13351012 -.00000074 00000+0 16853-3 0 9996 2 26083 52.0026 263.6796 0003496 121.3596 18.1913 12.17671190174655 GLOBALSTAR M064 1 26084U 00008D 25351.31188175 -.00000116 00000+0 -47188-3 0 9998 2 26084 52.0035 85.9519 0001863 76.5386 283.5654 11.88539185188871 GLOBALSTAR M065 1 31571U 07020A 25351.34135769 -.00000114 00000+0 -57257-4 0 9997 2 31571 51.9916 28.7985 0009687 356.0303 88.5786 12.62015535856538 GLOBALSTAR M069 1 31573U 07020C 25351.33863889 -.00000065 00000+0 25895-3 0 9995 2 31573 52.0048 46.8264 0002348 134.3236 306.4270 12.23465010856543 GLOBALSTAR M072 1 31574U 07020D 25351.05425809 -.00000047 00000+0 50690-3 0 9992 2 31574 51.9910 225.1344 0001276 11.9773 136.8595 11.91654430853267 GLOBALSTAR M071 1 31576U 07020F 25351.33404072 -.00000139 00000+0 -47246-3 0 9990 2 31576 52.0070 77.6204 0001610 122.8635 281.0462 12.18262664517261 GLOBALSTAR M067 1 32263U 07048A 25351.06910817 -.00000089 00000+0 63306-4 0 9992 2 32263 51.9712 220.7996 0001910 42.3102 107.3208 12.40682808832183 GLOBALSTAR M070 1 32264U 07048B 25351.30238282 -.00000095 00000+0 46807-4 0 9993 2 32264 51.9763 290.6556 0000454 63.1375 101.9570 12.62327407836791 GLOBALSTAR M066 1 32265U 07048C 25351.12928918 -.00000085 00000+0 77130-4 0 9998 2 32265 51.9574 220.5489 0005631 31.0788 136.5602 12.30383334837813 GLOBALSTAR M068 1 32266U 07048D 25351.29171876 -.00000090 00000+0 79037-4 0 9994 2 32266 51.9879 104.0852 0001664 150.2339 228.2197 12.62835527840699 GLOBALSTAR M079 1 37188U 10054A 25351.35267264 -.00000094 00000+0 56201-4 0 9999 2 37188 52.0058 302.2019 0000654 25.9959 140.5363 12.62269291699589 GLOBALSTAR M074 1 37189U 10054B 25351.29952484 -.00000102 00000+0 12294-4 0 9992 2 37189 52.0033 301.6579 0000719 54.8396 109.6827 12.62264113700183 GLOBALSTAR M076 1 37190U 10054C 25351.32452441 -.00000096 00000+0 40794-4 0 9994 2 37190 52.0045 301.7706 0000805 42.8780 114.2131 12.62268181699907 GLOBALSTAR M077 1 37191U 10054D 25351.19029027 -.00000091 00000+0 -22931-3 0 9998 2 37191 51.9985 281.5898 0001168 29.5111 111.4208 11.68176591699877 GLOBALSTAR M075 1 37192U 10054E 25351.32651201 -.00000089 00000+0 82424-4 0 9999 2 37192 51.9971 343.9172 0000320 70.8827 36.9068 12.62270579698974 GLOBALSTAR M073 1 37193U 10054F 25351.26343900 -.00000074 00000+0 16713-3 0 9998 2 37193 52.0059 258.0724 0000915 48.9517 129.8376 12.62268004700951 GLOBALSTAR M083 1 37739U 11033A 25351.35363000 -.00000068 00000+0 19743-3 0 9994 2 37739 51.9836 206.2746 0000967 68.8677 101.9337 12.62265769669982 GLOBALSTAR M088 1 37740U 11033B 25351.29277730 -.00000120 00000+0 -91130-4 0 9994 2 37740 52.0206 112.4444 0000946 117.1356 256.3048 12.62271045665523 GLOBALSTAR M091 1 37741U 11033C 25351.31249181 -.00000097 00000+0 36354-4 0 9996 2 37741 52.0004 75.6203 0000621 134.3074 267.9855 12.62268264666312 GLOBALSTAR M085 1 37742U 11033D 25351.30774272 -.00000095 00000+0 48180-4 0 9998 2 37742 52.0144 26.7676 0000209 159.4967 281.9124 12.62267368666825 GLOBALSTAR M081 1 37743U 11033E 25351.33379579 -.00000088 00000+0 86697-4 0 9990 2 37743 51.9980 29.3303 0000229 98.7016 341.8293 12.62270973666975 GLOBALSTAR M089 1 37744U 11033F 25351.27925019 -.00000086 00000+0 97577-4 0 9997 2 37744 51.9954 343.6903 0000601 71.7720 301.2052 12.62262400667815 GLOBALSTAR M084 1 38040U 11080A 25351.32743539 -.00000075 00000+0 15883-3 0 9997 2 38040 51.9986 210.9301 0001333 76.7824 94.2456 12.62266655645797 GLOBALSTAR M080 1 38041U 11080B 25351.05982494 -.00000068 00000+0 20084-3 0 9994 2 38041 52.0034 213.3999 0000717 99.2957 65.0255 12.62264910645881 GLOBALSTAR M082 1 38042U 11080C 25350.99789409 -.00000081 00000+0 12926-3 0 9999 2 38042 52.0046 169.0689 0000852 106.3738 66.0354 12.62266332646584 GLOBALSTAR M092 1 38043U 11080D 25351.12273654 -.00000090 00000+0 77063-4 0 9990 2 38043 52.0083 259.0771 0000826 64.2115 75.3895 12.62268380645059 GLOBALSTAR M090 1 38044U 11080E 25350.68759340 -.00000087 00000+0 96109-4 0 9990 2 38044 52.0094 163.9108 0000932 89.9522 350.6237 12.62265523646666 GLOBALSTAR M086 1 38045U 11080F 25351.20684553 -.00000080 00000+0 13029-3 0 9995 2 38045 51.9870 162.5564 0001438 45.1980 126.0002 12.62281270646675 GLOBALSTAR M097 1 39072U 13005A 25351.27654210 -.00000125 00000+0 -11580-3 0 9990 2 39072 52.0054 77.0865 0000549 111.4639 248.6287 12.62267709593933 GLOBALSTAR M093 1 39073U 13005B 25351.25044559 -.00000112 00000+0 -45731-4 0 9990 2 39073 52.0115 70.4448 0000271 112.2099 247.8797 12.62271112593881 GLOBALSTAR M094 1 39074U 13005C 25351.32949512 -.00000099 00000+0 27999-4 0 9991 2 39074 51.9979 344.5028 0000274 17.6150 342.4726 12.62265387595508 GLOBALSTAR M096 1 39075U 13005D 25351.26335735 -.00000096 00000+0 42197-4 0 9995 2 39075 52.0090 33.3600 0000170 144.6667 215.4212 12.62269424594417 GLOBALSTAR M078 1 39076U 13005E 25351.31654403 -.00000113 00000+0 -51305-4 0 9990 2 39076 51.9863 117.4609 0000885 172.3457 187.7423 12.62272521593040 GLOBALSTAR M095 1 39077U 13005F 25351.02606180 -.00000121 00000+0 -98146-4 0 9991 2 39077 52.0070 115.6904 0000560 132.1298 227.9616 12.62267268592860 GLOBALSTAR M087 1 52888U 22064A 25351.19747667 -.00000078 00000+0 14135-3 0 9990 2 52888 51.9994 256.5125 0000687 48.8020 311.2906 12.62261500168157